Knoxville, TN

8:03 AM EDT on September 02, 2015 (GMT -0400)
MountainCrest | | Change Station
CLOSE
Current Station
Personal Weather Station
Location: Knoxville, TN
Elevation: 1405 ft
Nearby Weather Stations

Elev 1405 ft 36.06 °N, 83.91 °W | Updated 6 seconds ago

Partly Cloudy
Partly Cloudy
70.2 °F
Feels Like 70.2 °F
N
0.0
Wind Variable Wind from South

Today
High -- | Low -- °F
--% Chance of Precip.
Yesterday
High -- | Low -- °F
Precip. -- in
7:07 AM 8:02 PM
Waning Gibbous, 81% visible
Pressure 30.11 in
Visibility 10.0 miles
Clouds Scattered Clouds 10000 ft
Overcast 25000 ft
Dew Point 65 °F
Humidity 85%
Rainfall Not available.
Snow Depth Not available.
UV 0 out of 12
Pollen 9.60 out of 12
Air Quality Not available.
Flu Activity Not available.
METAR KTYS 021153Z 00000KT 10SM SCT100 OVC250 21/21 A3014 RMK AO2 SLP195 T02060206 10228 20206 53011 $
Pressure 30.11 in
Visibility 10.0 miles
Clouds Scattered Clouds 10000 ft
Overcast 25000 ft
Dew Point 65 °F
Humidity 85%
Rainfall Not available.
Snow Depth Not available.
UV 0 out of 12
Pollen 9.60 out of 12
Air Quality Not available.
Flu Activity Not available.
METAR KTYS 021153Z 00000KT 10SM SCT100 OVC250 21/21 A3014 RMK AO2 SLP195 T02060206 10228 20206 53011 $

10-Day Weather Forecast

×

Almanac

Astronomy

Sep. 02, 2015 Rise Set
Actual Time
Civil Twilight
Nautical Twilight
Astronomical Twilight
Moon
Length of Visible Light
Length of Day
Tomorrow will be .
, % of the Moon is Illuminated

Today's Extremes

State Highs State Lows

Community

WunderPhotos

Upload Photos

1,851,736 photos uploaded!

WunderBlogs® & News

Nearby

Air Quality

  Air Quality AQ Index Pollutant
Not available.

Snow Depth

Station Depth Elevation

Earthquake Activity

City Distance Mag. Time & Date
Minimum magnitude displayed is 2.5.

Coastal Water Temperatures

Place Temperature

Stations

Nearby Weather Stations

Station Location Temp. Windchill Dew Point Humidity Wind Precip. Elev Updated Type